Retour au catalogue

STARLINK-35845

ActifCommunicationsVLEO
NORAD 66366·PAYLOAD·🇺🇸 United States

Lancé Nov 6, 2025 depuis Vandenberg Space Force Base

Loading…

Prochains Passages (prochaines 24 heures)

TLE

FraisSource: CelesTrak SupGP

Époque: Sep 15, 2026, 02:36 UTC

1 66366C 25254U   26258.10881944 -.00027802  00000+0 -89472-3 0  2584
2 66366  53.1571  71.4501 0001297  80.4212 259.8493 15.31691408    14

Suivez STARLINK-35845 en temps réel avec AllMySat

Download on the App Store